sat.trackr.live / text

‹ back to catalog

STARLINK-4280

NORAD 53178 · 2022-083AY

PAYLOAD ACTIVE UNKNOWN

§ Identity

Operator
Country
US
Launch date
2022-07-17
Launch site
AFETR
Launch vehicle
Mass (kg)
RCS (m²)

Purposes: comms

External: N2YO · Heavens-Above · Gunter

§ Orbital elements

Epoch: 2026-05-24T19:01:37.218432Z

Period
95.44 min
Inclination
53.2124°
Eccentricity
0.0001196
Mean motion
15.08816151 rev/d
Perigee alt
539.0 km
Apogee alt
540.6 km
Semi-major
6,918.0 km
B*
2.5005e-4
RAAN
182.4803°
Arg perigee
91.2635°
Mean anomaly
268.8494°
Rev number
21,283

§ Raw data

STARLINK-42801 53178U 22083AY  26144.79279188  .00003691  00000+0  25005-3 0  99902 53178  53.2124 182.4803 0001196  91.2635 268.8494 15.08816151212835

JSON: /api/v1/satellites/53178 · /tle

For live sub-satellite position, see the globe view (requires WebGL).

§ Visibility from observer

Set your observer location to see the next 7 days of passes ≥ 10°. The values pass through the URL so the page stays shareable.

No JS? Fill the form by hand. The geolocation button needs JavaScript.